This is the latest recevied weather packets stored in our database for station/object KC3SOZ. If no packets are shown the sender has not sent any weather packets the latest 10 day(s).
| Time | Temp. | Humidity | Pressure | Rain* | Wind** | Luminosity | Snow |
|---|---|---|---|---|---|---|---|
| 1777832990 | 13.89° C | 41% | 1014.2 hPa | 0 mm | - | 869 W/m² | - |
| 1777832690 | 13.33° C | 40% | 1014.2 hPa | 0 mm | - | 841 W/m² | - |
| 1777832387 | 12.78° C | 43% | 1014.6 hPa | 0 mm | - | 981 W/m² | - |
| 1777832084 | 12.78° C | 44% | 1014.4 hPa | 0 mm | - | 896 W/m² | - |
| 1777831779 | 12.78° C | 47% | 1014.4 hPa | 0 mm | - | 440 W/m² | - |
| 1777831478 | 12.78° C | 43% | 1014.4 hPa | 0 mm | - | 287 W/m² | - |
| 1777831174 | 13.33° C | 44% | 1014.5 hPa | 0 mm | - | 922 W/m² | - |
| 1777830873 | 12.22° C | 44% | 1014.4 hPa | 0 mm | - | 548 W/m² | - |
| 1777830568 | 12.78° C | 46% | 1014.6 hPa | 0 mm | - | 252 W/m² | - |
| 1777830267 | 12.78° C | 43% | 1014.8 hPa | 0 mm | - | 267 W/m² | - |
| 1777829966 | 12.78° C | 47% | 1014.9 hPa | 0 mm | - | 957 W/m² | - |
| 1777829663 | 12.22° C | 48% | 1014.7 hPa | 0 mm | - | 910 W/m² | - |
| 1777829360 | 12.22° C | 44% | 1014.7 hPa | 0 mm | - | 921 W/m² | - |
| 1777829057 | 11.67° C | 44% | 1014.7 hPa | 0 mm | - | 283 W/m² | - |
| 1777828753 | 12.78° C | 47% | 1014.8 hPa | 0 mm | - | 429 W/m² | - |
| 1777828450 | 12.22° C | 48% | 1015.1 hPa | 0 mm | - | 933 W/m² | - |
| 1777828148 | 11.67° C | 49% | 1014.9 hPa | 0 mm | - | 938 W/m² | - |
| 1777827844 | 11.11° C | 48% | 1015.3 hPa | 0 mm | - | 1025 W/m² | - |
| 1777827541 | 11.11° C | 49% | 1015.3 hPa | 0 mm | - | 419 W/m² | - |
| 1777827239 | 11.67° C | 47% | 1015.2 hPa | 0 mm | - | 1009 W/m² | - |
| 1777826934 | 11.67° C | 44% | 1015.5 hPa | 0 mm | - | 928 W/m² | - |
| 1777826632 | 11.11° C | 49% | 1015.5 hPa | 0 mm | - | 897 W/m² | - |
| 1777826327 | 11.11° C | 47% | 1015.6 hPa | 0 mm | - | 776 W/m² | - |
| 1777826026 | 10.56° C | 48% | 1015.5 hPa | 0 mm | - | 443 W/m² | - |
| 1777825722 | 10.56° C | 48% | 1015.6 hPa | 0 mm | - | 296 W/m² | - |
* Rain latest hour (hover to see other rain measurements)
** Current wind speed in m/s (hover to see current wind gust speed)